Regional Weather Roundup
Issued by NWS

Current Version | Previous Version | Text Only | Print | Product List | Glossary On
Versions: 1 2 3 4 5 6 7 8 9 10 11 12 13 14 15 16 17 18 19 20 21 22 23 24 25 26 27 28 29 30 31 32 33 34 35 36 37 38 39 40 41 42 43 44 45 46 47 48 49 50
000
ASUS43 KDMX 191606
RWRIA

WEATHER ROUNDUP FOR IOWA
NATIONAL WEATHER SERVICE DES MOINES IA
1100 AM CDT MON APR 19 2021

NOTE: "FAIR" INDICATES FEW OR NO CLOUDS BELOW 12,000 FEET WITH NO
SIGNIFICANT WEATHER AND/OR OBSTRUCTIONS TO VISIBILITY.

* - THESE STATIONS ARE NOT NWS STATIONS...THUS NOT UNDER NWS
QUALITY CONTROL.  THEY ALSO DO NOT REPORT WEATHER SUCH
AS PRECIPITATION OR FOG.

IAZ001>003-012>014-020>022-031>034-043>046-191700-
   NORTHWEST IOWA

CITY           SKY/WX    TMP DP  RH WIND       PRES   REMARKS
CARROLL *      PTSUNNY   30  25  80 N21G26    30.08S WCI  17
CHEROKEE *     PTSUNNY   32  18  56 N13G23    30.11S WCI  23
DENISON *      PTSUNNY   30  23  74 N18       30.12R WCI  18
LE MARS *      PTSUNNY   34  16  47 N17G28    30.12S WCI  23
MAURICE *      PTSUNNY   34  18  51 N22G30    30.11S WCI  22
SHELDON *      CLOUDY    30  16  55 N18G26    30.09S WCI  18
SIOUX CITY     CLOUDY    32  23  69 N16       30.14S WCI  21
SPENCER        CLOUDY    34  16  47 N21G30    30.09R WCI  22
STORM LAKE *     N/A     30  18  59 N20       30.09R WCI  18
$$

IAZ055>058-069>071-079>083-090>094-191700-
   SOUTHWEST IOWA

CITY           SKY/WX    TMP DP  RH WIND       PRES   REMARKS
ATLANTIC *     MIX PCPN  30  27  86 N15G23    30.09S WCI  19
AUDUBON *      FLURRIES  28  25  86 NW18      30.10R WCI  16
CLARINDA *     CLOUDY    36  25  64 N20G28    30.11R WCI  25
COUNCIL BLFS * LGT SNOW  30  27  86 N15G24    30.10R WCI  19
CRESTON *      CLOUDY    32  30  93 N20       30.06R WCI  20
HARLAN  *      LGT SNOW  28  28 100 N18       30.10R WCI  16
RED OAK *      MIX PCPN  34  27  75 N16G26    30.11R WCI  23
SHENANDOAH *   CLOUDY    36  27  69 N15       30.11R WCI  26
$$

IAZ047>049-059>061-072>074-084-191700-
   CENTRAL IOWA

CITY           SKY/WX    TMP DP  RH WIND       PRES   REMARKS
AMES           CLOUDY    34  22  61 NW20      30.04F WCI  23
ANKENY *       LGT SNOW  32  28  86 NW12      30.06F VSB 1   WCI  23
BOONE *        CLOUDY    34  28  80 NW15G23   30.04S WCI  24
CHARITON *     MIX PCPN  34  34 100 NW18G29   30.04R WCI  23
DES MOINES     SNOW      30  27  88 NW13G20   30.06F VSB 1/2 WCI  20
GRINNELL*      LGT SNOW  35  32  90 NW15      30.03S WCI  25
KNOXVILLE *    SNOW      32  30  93 NW14      30.04S VSB 1/2 WCI  22
MARSHALLTOWN   CLOUDY    36  25  64 NW18      30.02S WCI  26
NEWTON *       SUNNY     32  32 100 NW12G18   30.03S FOG     WCI  23
PELLA *        SNOW      32  31  95 NW13      30.06S VSB 1/2 WCI  22
PERRY *        FLURRIES  32  28  83 NW20      30.07F WCI  20
$$

IAZ004>006-015-016-023>025-035-036-191700-
   NORTH CENTRAL IOWA

CITY           SKY/WX    TMP DP  RH WIND       PRES   REMARKS
ALGONA *       CLOUDY    32  21  64 NW21      30.04R WCI  20
CLARION *      CLOUDY    34  23  64 NW21      30.04S WCI  22
ESTHERVILLE    CLOUDY    30  18  60 NW21G31   30.07R WCI  17
FORT DODGE *   CLOUDY    32  20  61 NW10G20   30.07S WCI  24
MASON CITY     CLOUDY    35  23  61 NW21G31   30.02S WCI  24
FOREST CITY *  CLOUDY    34  27  75 NW15G23   30.02R WCI  24
WEBSTER CITY * CLOUDY    34  23  64 NW22      30.04S WCI  22
IOWA FALLS *   CLOUDY    35  25  66 NW20      30.04R WCI  24
$$

IAZ007>011-017>019-026>030-037>042-050>054-066-191700-
   NORTHEAST IOWA

CITY           SKY/WX    TMP DP  RH WIND       PRES   REMARKS
CEDAR RAPIDS   CLOUDY    38  31  76 NW16      29.97R WCI  29
CHARLES CITY *   N/A     34  27  75 NW18G26   29.99R WCI  23
CLINTON *      CLOUDY    43  31  62 NW17      29.93R
DECORAH *        N/A     36  27  69 NW17G25   29.93S WCI  25
DUBUQUE        CLOUDY    41  30  65 NW14      29.92R
MONTICELLO *   PTSUNNY   41  28  60 NW20      29.94R
OELWEIN *      CLOUDY    37  23  56 NW22      29.97S WCI  27
WATERLOO       CLOUDY    38  25  59 NW16      29.98S WCI  29
$$

IAZ064-065-067-068-078-191700-
   EAST CENTRAL IOWA

CITY           SKY/WX    TMP DP  RH WIND       PRES   REMARKS
DAVENPORT      LGT RAIN  41  34  76 NW12      29.96R
IOWA CITY      LGT RAIN  39  33  79 NW14G23   30.00R WCI  31
MT. PLEASANT * PTSUNNY   46  36  66 N15G21    29.98R
MUSCATINE *    LGT RAIN  39  36  87 NW14      29.99R WCI  31
QUAD CITIES    LGT RAIN  40  34  79 NW16G22   29.95R WCI  31
$$

IAZ062-063-075>077-085>089-095>099-191700-
   SOUTHEAST IOWA

CITY           SKY/WX    TMP DP  RH WIND       PRES   REMARKS
BURLINGTON     CLOUDY    46  35  65 NW13G25   29.95R
FAIRFIELD *    CLOUDY    41  36  81 NW22      30.00R
FORT MADISON * CLOUDY    48  37  66 N13       29.96S
KEOKUK *       PTSUNNY   50  41  71 N12G18    29.95S
OSKALOOSA *    LGT SNOW  35  34  93 NW23      30.03R WCI  24
OTTUMWA        CLOUDY    35  31  85 NW24G33   30.02R WCI  23
WASHINGTON *     N/A    N/A N/A N/A MISG        N/A
$$

ABBREVIATIONS USED IN REMARKS
   TC - TEMPERATURES IN CELSIUS
  WCI - WIND CHILL INDEX
   HX - HEAT INDEX
  VSB - VISIBILITY
$$




USA.gov is the U.S. government's official web portal to all federal, state and local government web resources and services.